Salem, OR

3:09 PM PST on January 16, 2017 (GMT -0800)
McNary

Weather History for KSLE - April, 2012

Change the Weather History Date:

Sunday, April 15, 2012

  Actual Average Record
Temperature  
Mean Temperature 52 °F 50 °F  
Max Temperature 64 °F 61 °F 82 °F (1947)
Min Temperature 39 °F 39 °F 26 °F (1967)
Degree Days  
Heating Degree Days 13 15  
Month to date heating degree days 244 235  
Since 1 July heating degree days 3973 4038  
Cooling Degree Days 0 0  
Month to date cooling degree days 0 0  
Year to date cooling degree days 0 0  
Growing Degree Days 2 (Base 50)    
Moisture  
Dew Point 40 °F    
Average Humidity 63    
Maximum Humidity 92    
Minimum Humidity 34    
Precipitation  
Precipitation 0.00 in 0.10 in 0.84 in (2006)
Month to date precipitation 1.22 1.56  
Year to date precipitation 25.66 16.07  
Snow  
Snow 0.00 in - - ()
Month to date snowfall 0.0  
Snow Depth 0.00 in    
Sea Level Pressure  
Sea Level Pressure 30.15 in    
Wind  
Wind Speed 3 mph (South)    
Max Wind Speed 24 mph    
Max Gust Speed 25 mph    
Visibility 10 miles    
Events Rain    
T = Trace of Precipitation, MM = Missing Value Source: NWS Daily Summary

Daily Weather History Graph

Daily Weather History Graph

Search for Another Location

Airport or City:

Trip Planner

Search our weather history database for the weather conditions in past years. The results will help you decide how hot, cold, wet, or windy it might be!

Date:

Astronomy

Apr. 15, 2012 Rise Set
Actual Time 6:26 AM PDT 7:58 PM PDT
Civil Twilight 5:55 AM PDT 8:28 PM PDT
Nautical Twilight 5:18 AM PDT 9:06 PM PDT
Astronomical Twilight 4:38 AM PDT 9:46 PM PDT
Moon 3:40 AM PDT (4/15) 2:46 PM PDT (4/15)
Length of Visible Light 14h 33m
Length of Day
13h 31m
Waning Crescent, 26% of the Moon is Illuminated
Apr 15
Waning Crescent
Apr 21
New
Apr 29
First Quarter
May 5
Full
May 12
Last Quarter

Hourly Weather History & Observations

Time (PDT) Temp. Windchill Dew Point Humidity Pressure Visibility Wind Dir Wind Speed Gust Speed Precip Events Conditions
12:56 AM 44.1 °F - 37.9 °F 79% 30.20 in 10.0 mi Calm Calm - N/A   Clear
1:56 AM 42.1 °F - 37.0 °F 82% 30.22 in 10.0 mi Calm Calm - N/A   Clear
2:56 AM 39.9 °F 37.8 °F 37.0 °F 89% 30.21 in 10.0 mi SSE 3.5 mph - N/A   Clear
3:56 AM 42.1 °F - 37.9 °F 85% 30.22 in 10.0 mi Calm Calm - N/A   Overcast
4:56 AM 42.1 °F - 37.9 °F 85% 30.21 in 10.0 mi Calm Calm - N/A   Partly Cloudy
5:56 AM 39.9 °F - 37.0 °F 89% 30.21 in 10.0 mi Calm Calm - N/A   Clear
6:56 AM 41.0 °F - 37.9 °F 89% 30.22 in 10.0 mi Calm Calm - N/A   Clear
7:56 AM 44.1 °F - 41.0 °F 89% 30.22 in 10.0 mi Calm Calm - N/A   Overcast
8:56 AM 46.9 °F - 41.0 °F 80% 30.22 in 10.0 mi Calm Calm - N/A   Mostly Cloudy
9:56 AM 48.9 °F - 42.1 °F 77% 30.22 in 10.0 mi Calm Calm - N/A   Overcast
10:56 AM 52.0 °F - 43.0 °F 71% 30.21 in 10.0 mi Variable 3.5 mph - N/A   Partly Cloudy
11:56 AM 57.0 °F - 44.1 °F 62% 30.18 in 10.0 mi Calm Calm - N/A   Clear
12:56 PM 59.0 °F - 45.0 °F 60% 30.17 in 10.0 mi South 5.8 mph - N/A   Mostly Cloudy
1:56 PM 61.0 °F - 37.9 °F 42% 30.14 in 10.0 mi SSE 8.1 mph - N/A   Scattered Clouds
2:56 PM 63.0 °F - 35.1 °F 35% 30.12 in 10.0 mi SSW 9.2 mph 16.1 mph N/A   Clear
3:33 PM 62.6 °F - 35.6 °F 37% 30.11 in 10.0 mi North - - N/A   Overcast
3:56 PM 63.0 °F - 33.1 °F 33% 30.11 in 10.0 mi SSW 10.4 mph - N/A   Overcast
4:56 PM 64.0 °F - 39.9 °F 41% 30.09 in 10.0 mi SSW 6.9 mph - N/A   Mostly Cloudy
5:56 PM 62.1 °F - 41.0 °F 46% 30.08 in 10.0 mi SSW 5.8 mph - N/A   Overcast
6:56 PM 60.1 °F - 39.0 °F 46% 30.07 in 10.0 mi Variable 6.9 mph - N/A   Overcast
7:56 PM 57.0 °F - 37.9 °F 49% 30.07 in 10.0 mi WSW 4.6 mph - N/A   Overcast
8:56 PM 55.0 °F - 39.0 °F 55% 30.08 in 10.0 mi SW 6.9 mph - 0.00 in   Overcast
9:56 PM 51.1 °F - 45.0 °F 80% 30.08 in 10.0 mi South 4.6 mph - 0.01 in Rain Light Rain
10:56 PM 51.1 °F - 46.9 °F 86% 30.06 in 10.0 mi SSE 8.1 mph - 0.03 in Rain Rain
11:56 PM 52.0 °F - 48.9 °F 89% 30.05 in 10.0 mi South 15.0 mph - 0.02 in Rain Light Rain